START_TIME,STEP,MOV.,H8,t_acc.,H43,t_acc.,M25,t_acc.,H9,t_acc.
1980-11-14 18:00:18.080 ,6,0,0.,12.0,0.,12.0,0.,12.0,0.,12.0
1980-11-14 18:00:30.080 ,6,0,0.,12.0,0.,12.0,0.,12.0,0.,12.0
1980-11-14 18:00:42.080 ,5,0,0.,12.0,0.,12.0,0.,12.0,0.,12.0
1980-11-14 18:00:54.080 ,5,0,0.,12.0,0.,12.0,0.,12.0,0.,12.0
1980-11-14 18:01:06.080 ,5,0,0.,12.0,0.,12.0,0.,12.0,0.,12.0
1980-11-14 18:01:18.080 ,5,0,0.,12.0,0.,12.0,0.,12.0,0.,12.0
1980-11-14 18:01:30.080 ,4,0,0.,12.0,0.,12.0,0.,12.0,0.,12.0
1980-11-14 18:01:42.080 ,4,0,0.,12.0,0.,12.0,0.,12.0,0.,12.0
1980-11-14 18:01:54.080 ,4,0,0.,12.0,0.,12.0,0.,12.0,0.,12.0
1980-11-14 18:02:06.080 ,4,0,0.,12.0,0.,12.0,0.,12.0,0.,12.0
1980-11-14 18:02:18.070 ,3,0,0.,12.0,0.,12.0,0.,12.0,0.,12.0
1980-11-14 18:02:30.080 ,3,0,0.,12.0,0.,12.0,0.,12.0,0.,12.0
1980-11-14 18:02:42.070 ,3,0,0.,12.0,0.,12.0,0.,12.0,0.,12.0
1980-11-14 18:02:54.080 ,3,0,0.,12.0,0.,12.0,0.,12.0,0.,12.0
1980-11-14 18:03:06.070 ,2,0,0.,12.0,0.,12.0,0.,12.0,0.,12.0
1980-11-14 18:03:18.070 ,2,0,0.,12.0,0.,12.0,0.,12.0,0.,12.0
1980-11-14 18:03:30.070 ,2,0,0.,12.0,0.,12.0,0.,12.0,0.,12.0
1980-11-14 18:03:42.080 ,2,0,0.,12.0,0.,12.0,0.,12.0,0.,12.0
1980-11-14 18:03:54.070 ,1,0,0.,12.0,0.,12.0,0.,12.0,0.,12.0
1980-11-14 18:04:06.080 ,1,0,0.,12.0,0.,12.0,0.,12.0,0.,12.0
1980-11-14 18:04:18.080 ,1,0,0.,12.0,0.,12.0,0.,12.0,0.,12.0
1980-11-14 18:04:30.080 ,1,0,0.,12.0,0.,12.0,0.,12.0,0.,12.0
1980-11-14 18:04:42.080 ,0,0,0.,12.0,0.,12.0,0.,12.0,0.,12.0
1980-11-14 18:04:54.080 ,0,0,0.,12.0,0.,12.0,0.,12.0,0.,12.0
1980-11-14 18:05:06.080 ,0,0,0.,12.0,0.,12.0,0.,12.0,0.,12.0
1980-11-14 18:05:18.080 ,0,0,0.,12.0,0.,12.0,0.,12.0,0.,12.0
1980-11-14 18:05:30.080 ,0,0,0.,12.0,0.,12.0,0.,12.0,0.,12.0
1980-11-14 18:05:42.080 ,0,0,0.,12.0,0.,12.0,0.,12.0,0.,12.0
1980-11-14 18:05:54.080 ,0,0,0.,12.0,0.,12.0,0.,12.0,0.,12.0
1980-11-14 18:06:06.080 ,0,0,0.,12.0,0.,12.0,0.,12.0,0.,12.0
1980-11-14 18:06:18.080 ,1,0,0.,12.0,0.,12.0,0.,12.0,0.,12.0
1980-11-14 18:06:30.080 ,1,0,0.,12.0,0.,12.0,0.,12.0,0.,12.0
1980-11-14 18:06:42.080 ,1,0,0.,12.0,0.,12.0,0.,12.0,0.,12.0
1980-11-14 18:06:54.080 ,1,0,0.,12.0,0.,12.0,0.,12.0,0.,12.0
1980-11-14 18:07:06.080 ,2,0,0.,12.0,0.,12.0,0.,12.0,0.,12.0
1980-11-14 18:07:18.080 ,2,0,0.,12.0,0.,12.0,0.,12.0,0.,12.0
1980-11-14 18:07:30.080 ,2,0,0.,12.0,0.,12.0,0.,12.0,0.,12.0
1980-11-14 18:07:42.080 ,2,0,0.,12.0,0.,12.0,0.,12.0,0.,12.0
1980-11-14 18:07:54.080 ,3,0,0.,12.0,0.,12.0,0.,12.0,0.,12.0
1980-11-14 18:08:06.080 ,3,0,0.,12.0,0.,12.0,0.,12.0,0.,12.0
1980-11-14 18:08:18.080 ,3,0,0.,12.0,0.,12.0,0.,12.0,0.,12.0
1980-11-14 18:08:30.080 ,3,0,0.,12.0,0.,12.0,0.,12.0,0.,12.0
1980-11-14 18:08:42.080 ,4,0,0.,12.0,0.,12.0,0.,12.0,0.,12.0
1980-11-14 18:08:54.080 ,4,0,0.,12.0,0.,12.0,0.,12.0,0.,12.0
1980-11-14 18:09:06.080 ,4,0,0.,12.0,0.,12.0,0.,12.0,0.,12.0
1980-11-14 18:09:18.080 ,4,0,0.,12.0,0.,12.0,0.,12.0,0.,12.0
1980-11-14 18:09:30.080 ,5,0,0.,12.0,0.,12.0,0.,12.0,0.,12.0
1980-11-14 18:09:42.080 ,5,0,0.,12.0,0.,12.0,0.,12.0,0.,12.0
1980-11-14 18:09:54.080 ,5,0,0.,12.0,0.,12.0,0.,12.0,0.,12.0
1980-11-14 18:10:06.080 ,5,0,0.,12.0,0.,12.0,0.,12.0,0.,12.0
1980-11-14 18:10:18.080 ,6,0,0.,12.0,0.,12.0,0.,12.0,0.,12.0
1980-11-14 18:10:30.080 ,6,0,0.,12.0,0.,12.0,0.,12.0,0.,12.0
1980-11-14 18:10:42.080 ,6,0,0.,12.0,0.,12.0,0.,12.0,0.,12.0
1980-11-14 18:10:54.080 ,6,0,0.,12.0,0.,12.0,0.,12.0,0.,12.0
1980-11-14 18:11:06.080 ,7,0,0.,12.0,0.,12.0,0.,12.0,0.,12.0
1980-11-14 18:11:18.080 ,7,0,0.,12.0,0.,12.0,0.,12.0,0.,12.0
1980-11-14 18:11:30.080 ,7,0,0.,12.0,0.,12.0,0.,12.0,0.,12.0
1980-11-14 18:11:42.080 ,7,0,0.,12.0,0.,12.0,0.,12.0,0.,12.0
1980-11-14 18:11:54.080 ,7,0,0.,12.0,0.,12.0,0.,12.0,0.,12.0
1980-11-14 18:12:06.080 ,7,0,0.,12.0,0.,12.0,0.,12.0,0.,12.0
1980-11-14 18:12:18.080 ,7,0,0.,12.0,0.,12.0,0.,12.0,0.,12.0
1980-11-14 18:12:30.080 ,7,0,0.,12.0,0.,12.0,0.,12.0,0.,12.0
1980-11-14 18:12:42.080 ,6,0,0.,12.0,0.,12.0,0.,12.0,0.,12.0
1980-11-14 18:12:54.080 ,6,0,0.,12.0,0.,12.0,0.,12.0,0.,12.0
1980-11-14 18:13:06.080 ,6,0,0.,12.0,0.,12.0,0.,12.0,0.,12.0
1980-11-14 18:13:18.080 ,6,0,0.,12.0,0.,12.0,0.,12.0,0.,12.0
1980-11-14 18:13:30.080 ,5,0,0.,12.0,0.,12.0,0.,12.0,0.,12.0
1980-11-14 18:13:42.080 ,5,0,0.,12.0,0.,12.0,0.,12.0,0.,12.0
1980-11-14 18:13:54.080 ,5,0,0.,12.0,0.,12.0,0.,12.0,0.,12.0
1980-11-14 18:14:06.080 ,5,0,0.,12.0,0.,12.0,0.,12.0,0.,12.0
1980-11-14 18:14:18.080 ,4,0,0.,12.0,0.,12.0,0.,12.0,0.,12.0
1980-11-14 18:14:30.080 ,4,0,0.,12.0,0.,12.0,0.,12.0,0.,12.0
1980-11-14 18:14:42.080 ,4,0,0.,12.0,0.,12.0,0.,12.0,0.,12.0
1980-11-14 18:14:54.080 ,4,0,0.,12.0,0.,12.0,0.,12.0,0.,12.0
1980-11-14 18:15:06.080 ,3,0,0.,12.0,0.,12.0,0.,12.0,0.,12.0
1980-11-14 18:15:18.080 ,3,0,0.,12.0,0.,12.0,0.,12.0,0.,12.0
1980-11-14 18:15:30.080 ,3,0,0.,12.0,0.,12.0,0.,12.0,0.,12.0
1980-11-14 18:15:42.080 ,3,0,0.,12.0,0.,12.0,0.,12.0,0.,12.0
1980-11-14 18:15:54.080 ,2,0,0.,12.0,0.,12.0,0.,12.0,0.,12.0
1980-11-14 18:16:06.080 ,2,0,0.,12.0,0.,12.0,0.,12.0,0.,12.0
1980-11-14 18:16:18.080 ,2,0,0.,12.0,0.,12.0,0.,12.0,0.,12.0
1980-11-14 18:16:30.080 ,2,0,0.,12.0,0.,12.0,0.,12.0,0.,12.0
1980-11-14 18:16:42.080 ,1,0,0.,12.0,0.,12.0,0.,12.0,0.,12.0
1980-11-14 18:16:54.080 ,1,0,0.,12.0,0.,12.0,0.,12.0,0.,12.0
1980-11-14 18:17:06.080 ,1,0,0.,12.0,0.,12.0,0.,12.0,0.,12.0
1980-11-14 18:17:18.080 ,1,0,0.,12.0,0.,12.0,0.,12.0,0.,12.0
1980-11-14 18:17:30.070 ,0,0,0.,12.0,0.,12.0,0.,12.0,0.,12.0
1980-11-14 18:17:42.070 ,0,0,0.,12.0,0.,12.0,0.,12.0,0.,12.0
1980-11-14 18:17:54.070 ,0,0,0.,12.0,0.,12.0,0.,12.0,0.,12.0
1980-11-14 18:18:06.070 ,0,0,0.,12.0,0.,12.0,0.,12.0,0.,12.0
1980-11-14 18:18:18.070 ,0,0,0.,12.0,0.,12.0,0.,12.0,0.,12.0
1980-11-14 18:18:30.070 ,0,0,0.,12.0,0.,12.0,0.,12.0,0.,12.0
1980-11-14 18:18:42.070 ,0,0,0.,12.0,0.,12.0,0.,12.0,0.,12.0
1980-11-14 18:18:54.070 ,0,0,0.,12.0,0.,12.0,0.,12.0,0.,12.0
1980-11-14 18:19:06.070 ,1,0,0.,12.0,0.,12.0,0.,12.0,0.,12.0
1980-11-14 18:19:18.070 ,1,0,0.,12.0,0.,12.0,0.,12.0,0.,12.0
1980-11-14 18:19:30.070 ,1,0,0.,12.0,0.,12.0,0.,12.0,0.,12.0
1980-11-14 18:19:42.070 ,1,0,0.,12.0,0.,12.0,0.,12.0,0.,12.0
1980-11-14 18:19:54.070 ,2,0,0.,12.0,0.,12.0,0.,12.0,0.,12.0
1980-11-14 18:20:06.070 ,2,0,0.,12.0,0.,12.0,0.,12.0,0.,12.0
1980-11-14 18:20:18.070 ,2,0,0.,12.0,0.,12.0,0.,12.0,0.,12.0
1980-11-14 18:20:30.070 ,2,0,0.,12.0,0.,12.0,0.,12.0,0.,12.0
1980-11-14 18:20:42.070 ,3,0,0.,12.0,0.,12.0,0.,12.0,0.,12.0
1980-11-14 18:20:54.070 ,3,0,0.,12.0,0.,12.0,0.,12.0,0.,12.0
1980-11-14 18:21:06.070 ,3,0,0.,12.0,0.,12.0,0.,12.0,0.,12.0
1980-11-14 18:21:18.070 ,3,0,0.,12.0,0.,12.0,0.,12.0,0.,12.0
1980-11-14 18:21:30.070 ,4,0,0.,12.0,0.,12.0,0.,12.0,0.,12.0
1980-11-14 18:21:42.070 ,4,0,0.,12.0,0.,12.0,0.,12.0,0.,12.0
1980-11-14 18:21:54.070 ,4,0,0.,12.0,0.,12.0,0.,12.0,0.,12.0
1980-11-14 18:22:06.070 ,4,0,0.,12.0,0.,12.0,0.,12.0,0.,12.0
1980-11-14 18:22:18.070 ,5,0,0.,12.0,0.,12.0,0.,12.0,0.,12.0
1980-11-14 18:22:30.070 ,5,0,0.,12.0,0.,12.0,0.,12.0,0.,12.0
1980-11-14 18:22:42.070 ,5,0,0.,12.0,0.,12.0,0.,12.0,0.,12.0
1980-11-14 18:22:54.070 ,5,0,0.,12.0,0.,12.0,0.,12.0,0.,12.0
1980-11-14 18:23:06.070 ,6,0,0.,12.0,0.,12.0,0.,12.0,0.,12.0
1980-11-14 18:23:18.070 ,6,0,0.,12.0,0.,12.0,0.,12.0,0.,12.0
1980-11-14 18:23:30.070 ,6,0,0.,12.0,0.,12.0,0.,12.0,0.,12.0
1980-11-14 18:23:42.070 ,6,0,0.,12.0,0.,12.0,0.,12.0,0.,12.0
1980-11-14 18:23:54.070 ,7,0,0.,12.0,0.,12.0,0.,12.0,0.,12.0
1980-11-14 18:24:06.070 ,7,0,0.,12.0,0.,12.0,0.,12.0,0.,12.0
1980-11-14 18:24:18.070 ,7,0,0.,12.0,0.,12.0,0.,12.0,0.,12.0
1980-11-14 18:24:30.070 ,7,0,0.,12.0,0.,12.0,0.,12.0,0.,12.0
1980-11-14 18:24:42.070 ,7,0,0.,12.0,0.,12.0,0.,12.0,0.,12.0
1980-11-14 18:24:54.070 ,7,0,0.,12.0,0.,12.0,0.,12.0,0.,12.0
1980-11-14 18:25:06.070 ,7,0,0.,12.0,0.,12.0,0.,12.0,0.,12.0
1980-11-14 18:25:18.070 ,7,0,0.,12.0,0.,12.0,0.,12.0,0.,12.0
1980-11-14 18:25:30.070 ,6,0,0.,12.0,0.,12.0,0.,12.0,0.,12.0
1980-11-14 18:25:42.070 ,6,0,0.,12.0,0.,12.0,0.,12.0,0.,12.0
1980-11-14 18:25:54.070 ,6,0,0.,12.0,0.,12.0,0.,12.0,0.,12.0
1980-11-14 18:26:06.070 ,6,0,0.,12.0,0.,12.0,0.,12.0,0.,12.0
1980-11-14 18:26:18.070 ,5,0,0.,12.0,0.,12.0,0.,12.0,0.,12.0
1980-11-14 18:26:30.070 ,5,0,0.,12.0,0.,12.0,0.,12.0,0.,12.0
1980-11-14 18:26:42.070 ,5,0,0.,12.0,0.,12.0,0.,12.0,0.,12.0
1980-11-14 18:26:54.070 ,5,0,0.,12.0,0.,12.0,0.,12.0,0.,12.0
1980-11-14 18:27:06.070 ,4,0,0.,12.0,0.,12.0,0.,12.0,0.,12.0
1980-11-14 18:27:18.070 ,4,0,0.,12.0,0.,12.0,0.,12.0,0.,12.0
1980-11-14 18:27:30.070 ,4,0,0.,12.0,0.,12.0,0.,12.0,0.,12.0
1980-11-14 18:27:42.070 ,4,0,0.,12.0,0.,12.0,0.,12.0,0.,12.0
1980-11-14 18:27:54.070 ,3,0,0.,12.0,0.,12.0,0.,12.0,0.,12.0
1980-11-14 18:28:06.070 ,3,0,0.,12.0,0.,12.0,0.,12.0,0.,12.0
1980-11-14 18:28:18.070 ,3,0,0.,12.0,0.,12.0,0.,12.0,0.,12.0
1980-11-14 18:28:30.070 ,3,0,0.,12.0,0.,12.0,0.,12.0,0.,12.0
1980-11-14 18:28:42.070 ,2,0,0.,12.0,0.,12.0,0.,12.0,0.,12.0
1980-11-14 18:28:54.070 ,2,0,0.,12.0,0.,12.0,0.,12.0,0.,12.0
1980-11-14 18:29:06.070 ,2,0,0.,12.0,0.,12.0,0.,12.0,0.,12.0
1980-11-14 18:29:18.070 ,2,0,0.,12.0,0.,12.0,0.,12.0,0.,12.0
1980-11-14 18:29:30.070 ,1,0,0.,12.0,0.,12.0,0.,12.0,0.,12.0
1980-11-14 18:29:42.070 ,1,0,0.,12.0,0.,12.0,0.,12.0,0.,12.0
1980-11-14 18:29:54.070 ,1,0,0.,12.0,0.,12.0,0.,12.0,0.,12.0
1980-11-14 18:30:06.070 ,1,0,0.,12.0,0.,12.0,0.,12.0,0.,12.0
1980-11-14 18:30:18.070 ,0,0,0.,12.0,0.,12.0,0.,12.0,0.,12.0
1980-11-14 18:30:30.070 ,0,0,0.,12.0,0.,12.0,0.,12.0,0.,12.0
1980-11-14 18:30:42.070 ,0,0,0.,12.0,0.,12.0,0.,12.0,0.,12.0
1980-11-14 18:30:54.070 ,0,0,0.,12.0,0.,12.0,0.,12.0,0.,12.0
1980-11-14 18:31:06.070 ,0,0,0.,12.0,0.,12.0,0.,12.0,0.,12.0
1980-11-14 18:31:18.070 ,0,0,0.,12.0,0.,12.0,0.,12.0,0.,12.0
1980-11-14 18:31:30.070 ,0,0,0.,12.0,0.,12.0,0.,12.0,0.,12.0
1980-11-14 18:31:42.070 ,0,0,0.,12.0,0.,12.0,0.,12.0,0.,12.0
1980-11-14 18:31:54.070 ,1,0,0.,12.0,0.,12.0,0.,12.0,0.,12.0
1980-11-14 18:32:06.070 ,1,0,0.,12.0,0.,12.0,0.,12.0,0.,12.0
1980-11-14 18:32:18.070 ,1,0,0.,12.0,0.,12.0,0.,12.0,0.,12.0
1980-11-14 18:32:30.070 ,1,0,0.,12.0,0.,12.0,0.,12.0,0.,12.0
1980-11-14 18:32:42.070 ,2,0,0.,12.0,0.,12.0,0.,12.0,0.,12.0
1980-11-14 18:32:54.070 ,2,0,0.,12.0,0.,12.0,0.,12.0,0.,12.0
1980-11-14 18:33:06.070 ,2,0,0.,12.0,0.,12.0,0.,12.0,0.,12.0
1980-11-14 18:33:18.070 ,2,0,0.,12.0,0.,12.0,0.,12.0,0.,12.0
1980-11-14 18:33:30.070 ,3,0,0.,12.0,0.,12.0,0.,12.0,0.,12.0
1980-11-14 18:33:42.070 ,3,0,0.,12.0,0.,12.0,0.,12.0,0.,12.0
1980-11-14 18:33:54.070 ,3,0,0.,12.0,0.,12.0,0.,12.0,0.,12.0
1980-11-14 18:34:06.070 ,3,0,0.,12.0,0.,12.0,0.,12.0,0.,12.0
1980-11-14 18:34:18.070 ,4,0,0.,12.0,0.,12.0,0.,12.0,0.,12.0
1980-11-14 18:34:30.070 ,4,0,0.,12.0,0.,12.0,0.,12.0,0.,12.0
1980-11-14 18:34:42.070 ,4,0,0.,12.0,0.,12.0,0.,12.0,0.,12.0
1980-11-14 18:34:54.070 ,4,0,0.,12.0,0.,12.0,0.,12.0,0.,12.0
1980-11-14 18:35:06.070 ,5,0,0.,12.0,0.,12.0,0.,12.0,0.,12.0
1980-11-14 18:35:18.070 ,5,0,0.,12.0,0.,12.0,0.,12.0,0.,12.0
1980-11-14 18:35:30.070 ,5,0,0.,12.0,0.,12.0,0.,12.0,0.,12.0
1980-11-14 18:35:42.070 ,5,0,0.,12.0,0.,12.0,0.,12.0,0.,12.0
1980-11-14 18:35:54.070 ,6,0,0.,12.0,0.,12.0,0.,12.0,0.,12.0
1980-11-14 18:36:06.070 ,6,0,0.,12.0,0.,12.0,0.,12.0,0.,12.0
1980-11-14 18:36:18.070 ,6,0,0.,12.0,0.,12.0,0.,12.0,0.,12.0
1980-11-14 18:36:30.070 ,6,0,0.,12.0,0.,12.0,0.,12.0,0.,12.0
1980-11-14 18:36:42.070 ,7,0,0.,12.0,0.,12.0,0.,12.0,0.,12.0
1980-11-14 18:36:54.070 ,7,0,0.,12.0,0.,12.0,0.,12.0,0.,12.0
1980-11-14 18:37:06.070 ,7,0,0.,12.0,0.,12.0,0.,12.0,0.,12.0
1980-11-14 18:37:18.070 ,7,0,0.,12.0,0.,12.0,0.,12.0,0.,12.0
1980-11-14 18:37:30.070 ,7,0,0.,12.0,0.,12.0,0.,12.0,0.,12.0
1980-11-14 18:37:42.070 ,7,0,0.,12.0,0.,12.0,0.,12.0,0.,12.0
1980-11-14 18:37:54.070 ,7,0,0.,12.0,0.,12.0,0.,12.0,0.,12.0
1980-11-14 18:38:06.070 ,7,0,0.,12.0,0.,12.0,0.,12.0,0.,12.0
1980-11-14 18:38:18.070 ,6,0,0.,12.0,0.,12.0,0.,12.0,0.,12.0
1980-11-14 18:38:30.070 ,6,0,0.,12.0,0.,12.0,0.,12.0,0.,12.0
1980-11-14 18:38:42.070 ,6,0,0.,12.0,0.,12.0,0.,12.0,0.,12.0
1980-11-14 18:38:54.070 ,6,0,0.,12.0,0.,12.0,0.,12.0,0.,12.0
1980-11-14 18:39:06.070 ,5,0,0.,12.0,0.,12.0,0.,12.0,0.,12.0
1980-11-14 18:39:18.070 ,5,0,0.,12.0,0.,12.0,0.,12.0,0.,12.0
1980-11-14 18:39:30.070 ,5,0,0.,12.0,0.,12.0,0.,12.0,0.,12.0
1980-11-14 18:39:42.070 ,5,0,0.,12.0,0.,12.0,0.,12.0,0.,12.0
1980-11-14 18:39:54.070 ,4,0,0.,12.0,0.,12.0,0.,12.0,0.,12.0
1980-11-14 18:40:06.070 ,4,0,0.,12.0,0.,12.0,0.,12.0,0.,12.0
1980-11-14 18:40:18.070 ,4,0,0.,12.0,0.,12.0,0.,12.0,0.,12.0
1980-11-14 18:40:30.070 ,4,0,0.,12.0,0.,12.0,0.,12.0,0.,12.0
1980-11-14 18:40:42.070 ,3,0,0.,12.0,0.,12.0,0.,12.0,0.,12.0
1980-11-14 18:40:54.070 ,3,0,0.,12.0,0.,12.0,0.,12.0,0.,12.0
1980-11-14 18:41:06.070 ,3,0,0.,12.0,0.,12.0,0.,12.0,0.,12.0
1980-11-14 18:41:18.070 ,3,0,0.,12.0,0.,12.0,0.,12.0,0.,12.0
1980-11-14 18:41:30.070 ,2,0,0.,12.0,0.,12.0,0.,12.0,0.,12.0
1980-11-14 18:41:42.070 ,2,0,0.,12.0,0.,12.0,0.,12.0,0.,12.0
1980-11-14 18:41:54.070 ,2,0,0.,12.0,0.,12.0,0.,12.0,0.,12.0
1980-11-14 18:42:06.070 ,2,0,0.,12.0,0.,12.0,0.,12.0,0.,12.0
1980-11-14 18:42:18.070 ,1,0,0.,12.0,0.,12.0,0.,12.0,0.,12.0
1980-11-14 18:42:30.070 ,1,0,0.,12.0,0.,12.0,0.,12.0,0.,12.0
1980-11-14 18:42:42.070 ,1,0,0.,12.0,0.,12.0,0.,12.0,0.,12.0
1980-11-14 18:42:54.070 ,1,0,0.,12.0,0.,12.0,0.,12.0,0.,12.0
1980-11-14 18:43:06.070 ,0,0,0.,12.0,0.,12.0,0.,12.0,0.,12.0
1980-11-14 18:43:18.070 ,0,0,0.,12.0,0.,12.0,0.,12.0,0.,12.0
1980-11-14 18:43:30.070 ,0,0,0.,12.0,0.,12.0,0.,12.0,0.,12.0
1980-11-14 18:43:42.070 ,0,0,0.,12.0,0.,12.0,0.,12.0,0.,12.0
1980-11-14 18:43:54.070 ,0,0,0.,12.0,0.,12.0,0.,12.0,0.,12.0
1980-11-14 18:44:06.070 ,0,0,0.,12.0,0.,12.0,0.,12.0,0.,12.0
1980-11-14 18:44:18.070 ,0,0,0.,12.0,0.,12.0,0.,12.0,0.,12.0
1980-11-14 18:44:30.070 ,0,0,0.,12.0,0.,12.0,0.,12.0,0.,12.0
1980-11-14 18:44:42.070 ,1,0,0.,12.0,0.,12.0,0.,12.0,0.,12.0
1980-11-14 18:44:54.070 ,1,0,0.,12.0,0.,12.0,0.,12.0,0.,12.0
1980-11-14 18:45:06.070 ,1,0,0.,12.0,0.,12.0,0.,12.0,0.,12.0
1980-11-14 18:45:18.070 ,1,0,0.,12.0,0.,12.0,0.,12.0,0.,12.0
1980-11-14 18:45:30.070 ,2,0,0.,12.0,0.,12.0,0.,12.0,0.,12.0
1980-11-14 18:45:42.070 ,2,0,0.,12.0,0.,12.0,0.,12.0,0.,12.0
1980-11-14 18:45:54.070 ,2,0,0.,12.0,0.,12.0,0.,12.0,0.,12.0
1980-11-14 18:46:06.070 ,2,0,0.,12.0,0.,12.0,0.,12.0,0.,12.0
1980-11-14 18:46:18.070 ,3,0,0.,12.0,0.,12.0,0.,12.0,0.,12.0
1980-11-14 18:46:30.070 ,3,0,0.,12.0,0.,12.0,0.,12.0,0.,12.0
1980-11-14 18:46:42.070 ,3,0,0.,12.0,0.,12.0,0.,12.0,0.,12.0
1980-11-14 18:46:54.070 ,3,0,0.,12.0,0.,12.0,0.,12.0,0.,12.0
1980-11-14 18:47:06.070 ,4,0,0.,12.0,0.,12.0,0.,12.0,0.,12.0
1980-11-14 18:47:18.070 ,4,0,0.,12.0,0.,12.0,0.,12.0,0.,12.0
1980-11-14 18:47:30.070 ,4,0,0.,12.0,0.,12.0,0.,12.0,0.,12.0
1980-11-14 18:47:42.070 ,4,0,0.,12.0,0.,12.0,0.,12.0,0.,12.0
1980-11-14 18:47:54.070 ,5,0,0.,12.0,0.,12.0,0.,12.0,0.,12.0
1980-11-14 18:48:06.070 ,5,0,0.,12.0,0.,12.0,0.,12.0,0.,12.0
1980-11-14 18:48:18.070 ,5,0,0.,12.0,0.,12.0,0.,12.0,0.,12.0
1980-11-14 18:48:30.070 ,5,0,0.,12.0,0.,12.0,0.,12.0,0.,12.0
1980-11-14 18:48:42.070 ,6,0,0.,12.0,0.,12.0,0.,12.0,0.,12.0
1980-11-14 18:48:54.070 ,6,0,0.,12.0,0.,12.0,0.,12.0,0.,12.0
1980-11-14 18:49:06.070 ,6,0,0.,12.0,0.,12.0,0.,12.0,0.,12.0
1980-11-14 18:49:18.070 ,6,0,0.,12.0,0.,12.0,0.,12.0,0.,12.0
1980-11-14 18:49:30.070 ,7,0,0.,12.0,0.,12.0,0.,12.0,0.,12.0
1980-11-14 18:49:42.070 ,7,0,0.,12.0,0.,12.0,0.,12.0,0.,12.0
1980-11-14 18:49:54.070 ,7,0,0.,12.0,0.,12.0,0.,12.0,0.,12.0
1980-11-14 18:50:06.070 ,7,0,0.,12.0,0.,12.0,0.,12.0,0.,12.0
1980-11-14 18:50:18.070 ,7,0,0.,12.0,0.,12.0,0.,12.0,0.,12.0
1980-11-14 18:50:30.070 ,7,0,0.,12.0,0.,12.0,0.,12.0,0.,12.0
1980-11-14 18:50:42.070 ,7,0,0.,12.0,0.,12.0,0.,12.0,0.,12.0
1980-11-14 18:50:54.070 ,7,0,0.,12.0,0.,12.0,0.,12.0,0.,12.0
1980-11-14 18:51:06.070 ,6,0,0.,12.0,0.,12.0,0.,12.0,0.,12.0
1980-11-14 18:51:18.070 ,6,0,0.,12.0,0.,12.0,0.,12.0,0.,12.0
1980-11-14 18:51:30.070 ,6,0,0.,12.0,0.,12.0,0.,12.0,0.,12.0
1980-11-14 18:51:42.070 ,6,0,0.,12.0,0.,12.0,0.,12.0,0.,12.0
1980-11-14 18:51:54.070 ,5,0,0.,12.0,0.,12.0,0.,12.0,0.,12.0
1980-11-14 18:52:06.070 ,5,0,0.,12.0,0.,12.0,0.,12.0,0.,12.0
1980-11-14 18:52:18.070 ,5,0,0.,12.0,0.,12.0,0.,12.0,0.,12.0
1980-11-14 18:52:30.070 ,5,0,0.,12.0,0.,12.0,0.,12.0,0.,12.0
1980-11-14 18:52:42.070 ,4,0,0.,12.0,0.,12.0,0.,12.0,0.,12.0
1980-11-14 18:52:54.070 ,4,0,0.,12.0,0.,12.0,0.,12.0,0.,12.0
1980-11-14 18:53:06.070 ,4,0,0.,12.0,0.,12.0,0.,12.0,0.,12.0
1980-11-14 18:53:18.070 ,4,0,0.,12.0,0.,12.0,0.,12.0,0.,12.0
1980-11-14 18:53:30.070 ,3,0,0.,12.0,0.,12.0,0.,12.0,0.,12.0
1980-11-14 18:53:42.070 ,3,0,0.,12.0,0.,12.0,0.,12.0,0.,12.0
1980-11-14 18:53:54.070 ,3,0,0.,12.0,0.,12.0,0.,12.0,0.,12.0
1980-11-14 18:54:06.070 ,3,0,0.,12.0,0.,12.0,0.,12.0,0.,12.0
1980-11-14 18:54:18.070 ,2,0,0.,12.0,0.,12.0,0.,12.0,0.,12.0
1980-11-14 18:54:30.070 ,2,0,0.,12.0,0.,12.0,0.,12.0,0.,12.0
1980-11-14 18:54:42.070 ,2,0,0.,12.0,0.,12.0,0.,12.0,0.,12.0
1980-11-14 18:54:54.070 ,2,0,0.,12.0,0.,12.0,0.,12.0,0.,12.0
1980-11-14 18:55:06.070 ,1,0,0.,12.0,0.,12.0,0.,12.0,0.,12.0
1980-11-14 18:55:18.070 ,1,0,0.,12.0,0.,12.0,0.,12.0,0.,12.0
1980-11-14 18:55:30.070 ,1,0,0.,12.0,0.,12.0,0.,12.0,0.,12.0
1980-11-14 18:55:42.070 ,1,0,0.,12.0,0.,12.0,0.,12.0,0.,12.0
1980-11-14 18:55:54.070 ,0,0,0.,12.0,0.,12.0,0.,12.0,0.,12.0
1980-11-14 18:56:06.070 ,0,0,0.,12.0,0.,12.0,0.,12.0,0.,12.0
1980-11-14 18:56:18.070 ,0,0,0.,12.0,0.,12.0,0.,12.0,0.,12.0
1980-11-14 18:56:30.070 ,0,0,0.,12.0,0.,12.0,0.,12.0,0.,12.0
1980-11-14 18:56:42.070 ,0,0,0.,12.0,0.,12.0,0.,12.0,0.,12.0
1980-11-14 18:56:54.070 ,0,0,0.,12.0,0.,12.0,0.,12.0,0.,12.0
1980-11-14 18:57:06.070 ,0,0,0.,12.0,0.,12.0,0.,12.0,0.,12.0
1980-11-14 18:57:18.070 ,0,0,0.,12.0,0.,12.0,0.,12.0,0.,12.0
1980-11-14 18:57:30.070 ,1,0,0.,12.0,0.,12.0,0.,12.0,0.,12.0
1980-11-14 18:57:42.070 ,1,0,0.,12.0,0.,12.0,0.,12.0,0.,12.0
1980-11-14 18:57:54.070 ,1,0,0.,12.0,0.,12.0,0.,12.0,0.,12.0
1980-11-14 18:58:06.070 ,1,0,0.,12.0,0.,12.0,0.,12.0,0.,12.0
1980-11-14 18:58:18.070 ,2,0,0.,12.0,0.,12.0,0.,12.0,0.,12.0
1980-11-14 18:58:30.070 ,2,0,0.,12.0,0.,12.0,0.,12.0,0.,12.0
1980-11-14 18:58:42.070 ,2,0,0.,12.0,0.,12.0,0.,12.0,0.,12.0
1980-11-14 18:58:54.070 ,2,0,0.,12.0,0.,12.0,0.,12.0,0.,12.0
1980-11-14 18:59:06.070 ,3,0,0.,12.0,0.,12.0,0.,12.0,0.,12.0
1980-11-14 18:59:18.070 ,3,0,0.,12.0,0.,12.0,0.,12.0,0.,12.0
1980-11-14 18:59:30.070 ,3,0,0.,12.0,0.,12.0,0.,12.0,0.,12.0
1980-11-14 18:59:42.070 ,3,0,0.,12.0,0.,12.0,0.,12.0,0.,12.0
1980-11-14 18:59:54.070 ,4,0,0.,12.0,0.,12.0,0.,12.0,0.,12.0
1980-11-14 19:00:06.070 ,4,0,0.,12.0,0.,12.0,0.,12.0,0.,12.0
1980-11-14 19:00:18.080 ,4,0,0.,12.0,0.,12.0,0.,12.0,0.,12.0
1980-11-14 19:00:30.080 ,4,0,0.,12.0,0.,12.0,0.,12.0,0.,12.0
1980-11-14 19:00:42.080 ,5,0,0.,12.0,0.,12.0,0.,12.0,0.,12.0
1980-11-14 19:00:54.080 ,5,0,0.,12.0,0.,12.0,0.,12.0,0.,12.0
1980-11-14 19:01:06.080 ,5,0,0.,12.0,0.,12.0,0.,12.0,0.,12.0
1980-11-14 19:01:18.080 ,5,0,0.,12.0,0.,12.0,0.,12.0,0.,12.0
1980-11-14 19:01:30.080 ,6,0,0.,12.0,0.,12.0,0.,12.0,0.,12.0
1980-11-14 19:01:42.080 ,6,0,0.,12.0,0.,12.0,0.,12.0,0.,12.0
1980-11-14 19:01:54.080 ,6,0,0.,12.0,0.,12.0,0.,12.0,0.,12.0
1980-11-14 19:02:06.080 ,6,0,0.,12.0,0.,12.0,0.,12.0,0.,12.0
1980-11-14 19:02:18.070 ,7,0,0.,12.0,0.,12.0,0.,12.0,0.,12.0
1980-11-14 19:02:30.080 ,7,0,0.,12.0,0.,12.0,0.,12.0,0.,12.0
1980-11-14 19:02:42.070 ,7,0,0.,12.0,0.,12.0,0.,12.0,0.,12.0
1980-11-14 19:02:54.080 ,7,0,0.,12.0,0.,12.0,0.,12.0,0.,12.0
1980-11-14 19:03:06.070 ,7,0,0.,12.0,0.,12.0,0.,12.0,0.,12.0
1980-11-14 19:03:18.070 ,7,0,0.,12.0,0.,12.0,0.,12.0,0.,12.0
1980-11-14 19:03:30.070 ,7,0,0.,12.0,0.,12.0,0.,12.0,0.,12.0
1980-11-14 19:03:42.080 ,7,0,0.,12.0,0.,12.0,0.,12.0,0.,12.0
1980-11-14 19:03:54.070 ,6,0,0.,12.0,0.,12.0,0.,12.0,0.,12.0
1980-11-14 19:04:06.080 ,6,0,0.,12.0,0.,12.0,0.,12.0,0.,12.0
1980-11-14 19:04:18.080 ,6,0,0.,12.0,0.,12.0,0.,12.0,0.,12.0
1980-11-14 19:04:30.080 ,6,0,0.,12.0,0.,12.0,0.,12.0,0.,12.0
1980-11-14 19:04:42.080 ,5,0,0.,12.0,0.,12.0,0.,12.0,0.,12.0
1980-11-14 19:04:54.080 ,5,0,0.,12.0,0.,12.0,0.,12.0,0.,12.0
1980-11-14 19:05:06.080 ,5,0,0.,12.0,0.,12.0,0.,12.0,0.,12.0
1980-11-14 19:05:18.080 ,5,0,0.,12.0,0.,12.0,0.,12.0,0.,12.0
1980-11-14 19:05:30.080 ,4,0,0.,12.0,0.,12.0,0.,12.0,0.,12.0
1980-11-14 19:05:42.080 ,4,0,0.,12.0,0.,12.0,0.,12.0,0.,12.0
1980-11-14 19:05:54.080 ,4,0,0.,12.0,0.,12.0,0.,12.0,0.,12.0
1980-11-14 19:06:06.080 ,4,0,0.,12.0,0.,12.0,0.,12.0,0.,12.0
1980-11-14 19:06:18.080 ,3,0,0.,12.0,0.,12.0,0.,12.0,0.,12.0
1980-11-14 19:06:30.080 ,3,0,0.,12.0,0.,12.0,0.,12.0,0.,12.0
1980-11-14 19:06:42.080 ,3,0,0.,12.0,0.,12.0,0.,12.0,0.,12.0
1980-11-14 19:06:54.080 ,3,0,0.,12.0,0.,12.0,0.,12.0,0.,12.0
1980-11-14 19:07:06.080 ,0,0,,0,,0,,0,,0
1980-11-14 19:07:18.080 ,0,0,,0,,0,,0,,0
1980-11-14 19:07:30.080 ,0,0,,0,,0,,0,,0
1980-11-14 19:07:42.080 ,0,0,,0,,0,,0,,0
1980-11-14 19:07:06.080 ,0,0,,0,,0,,0,,0
1980-11-14 19:07:18.080 ,0,0,,0,,0,,0,,0
1980-11-14 19:07:30.080 ,0,0,,0,,0,,0,,0
1980-11-14 19:07:42.080 ,0,0,,0,,0,,0,,0
1980-11-14 19:07:06.670 ,2,0,0.,12.0,0.,12.0,0.,12.0,0.,12.0
1980-11-14 19:07:18.670 ,2,0,0.,12.0,0.,12.0,0.,12.0,0.,12.0
1980-11-14 19:07:30.080 ,2,0,0.,12.0,0.,12.0,0.,12.0,0.,12.0
1980-11-14 19:07:42.080 ,2,0,0.,12.0,0.,12.0,0.,12.0,0.,12.0
1980-11-14 19:07:54.080 ,1,0,0.,12.0,0.,12.0,0.,12.0,0.,12.0
1980-11-14 19:08:06.080 ,1,0,0.,12.0,0.,12.0,0.,12.0,0.,12.0
1980-11-14 19:08:18.080 ,1,0,0.,12.0,0.,12.0,0.,12.0,0.,12.0
1980-11-14 19:08:30.080 ,1,0,0.,12.0,0.,12.0,0.,12.0,0.,12.0
1980-11-14 19:08:42.080 ,0,0,0.,12.0,0.,12.0,0.,12.0,0.,12.0
1980-11-14 19:08:54.080 ,0,0,0.,12.0,0.,12.0,0.,12.0,0.,12.0
1980-11-14 19:09:06.080 ,0,0,0.,12.0,0.,12.0,0.,12.0,0.,12.0
1980-11-14 19:09:18.080 ,0,0,0.,12.0,0.,12.0,0.,12.0,0.,12.0
1980-11-14 19:09:30.080 ,0,0,0.,12.0,0.,12.0,0.,12.0,0.,12.0
1980-11-14 19:09:42.080 ,0,0,0.,12.0,0.,12.0,0.,12.0,0.,12.0
1980-11-14 19:09:54.080 ,0,0,0.,12.0,0.,12.0,0.,12.0,0.,12.0
1980-11-14 19:10:06.080 ,0,0,0.,12.0,0.,12.0,0.,12.0,0.,12.0
1980-11-14 19:10:18.080 ,1,0,0.,12.0,0.,12.0,0.,12.0,0.,12.0
1980-11-14 19:10:30.080 ,1,0,0.,12.0,0.,12.0,0.,12.0,0.,12.0
1980-11-14 19:10:42.080 ,1,0,0.,12.0,0.,12.0,0.,12.0,0.,12.0
1980-11-14 19:10:54.080 ,1,0,0.,12.0,0.,12.0,0.,12.0,0.,12.0
1980-11-14 19:11:06.080 ,2,0,0.,12.0,0.,12.0,0.,12.0,0.,12.0
1980-11-14 19:11:18.080 ,2,0,0.,12.0,0.,12.0,0.,12.0,0.,12.0
1980-11-14 19:11:30.080 ,2,0,0.,12.0,0.,12.0,0.,12.0,0.,12.0
1980-11-14 19:11:42.080 ,2,0,0.,12.0,0.,12.0,0.,12.0,0.,12.0
1980-11-14 19:11:54.080 ,3,0,0.,12.0,0.,12.0,0.,12.0,0.,12.0
1980-11-14 19:12:06.080 ,3,0,0.,12.0,0.,12.0,0.,12.0,0.,12.0
1980-11-14 19:12:18.080 ,3,0,0.,12.0,0.,12.0,0.,12.0,0.,12.0
1980-11-14 19:12:30.080 ,3,0,0.,12.0,0.,12.0,0.,12.0,0.,12.0
1980-11-14 19:12:42.080 ,4,0,0.,12.0,0.,12.0,0.,12.0,0.,12.0
1980-11-14 19:12:54.080 ,4,0,0.,12.0,0.,12.0,0.,12.0,0.,12.0
1980-11-14 19:13:06.080 ,4,0,0.,12.0,0.,12.0,0.,12.0,0.,12.0
1980-11-14 19:13:18.080 ,4,0,0.,12.0,0.,12.0,0.,12.0,0.,12.0
1980-11-14 19:13:30.080 ,5,0,0.,12.0,0.,12.0,0.,12.0,0.,12.0
1980-11-14 19:13:42.080 ,5,0,0.,12.0,0.,12.0,0.,12.0,0.,12.0
1980-11-14 19:13:54.080 ,5,0,0.,12.0,0.,12.0,0.,12.0,0.,12.0
1980-11-14 19:14:06.080 ,5,0,0.,12.0,0.,12.0,0.,12.0,0.,12.0
1980-11-14 19:14:18.080 ,6,0,0.,12.0,0.,12.0,0.,12.0,0.,12.0
1980-11-14 19:14:30.080 ,6,0,0.,12.0,0.,12.0,0.,12.0,0.,12.0
1980-11-14 19:14:42.080 ,6,0,0.,12.0,0.,12.0,0.,12.0,0.,12.0
1980-11-14 19:14:54.080 ,6,0,0.,12.0,0.,12.0,0.,12.0,0.,12.0
1980-11-14 19:15:06.080 ,7,0,0.,12.0,0.,12.0,0.,12.0,0.,12.0
1980-11-14 19:15:18.080 ,7,0,0.,12.0,0.,12.0,0.,12.0,0.,12.0
1980-11-14 19:15:30.080 ,7,0,0.,12.0,0.,12.0,0.,12.0,0.,12.0
1980-11-14 19:15:42.080 ,7,0,0.,12.0,0.,12.0,0.,12.0,0.,12.0
1980-11-14 19:15:54.080 ,7,0,0.,12.0,0.,12.0,0.,12.0,0.,12.0
1980-11-14 19:16:06.080 ,7,0,0.,12.0,0.,12.0,0.,12.0,0.,12.0